www.pogodaiklimat.ru

Погода и климат >> Архив погоды >> Франция >> Мыс Пертюзато


ПОГОДА на Мысе Пертюзато

  • Прогноз погоды на Мысе Пертюзато
  • Монитор погоды на Мысе Пертюзато

АРХИВ ПОГОДЫ на Мысе Пертюзато

Время (UTC), дата Ветер
(напр.,м/с)
 
Видим.   Явления Облачность Т
(С)
Тd
(С)
f
(%)
Тe
(С)
Тes
(С)
Комфортность P
(гПа)
Po
(гПа)
Тmin
(С)
Tmax
(С)
R
(мм)
R24
(мм)
S
(см)
13 9.07 СВ 3-5
{6}
н/о н/о +32.1 +17.6 42 +36 +36 очень
душно
1010.0 997.1
14 9.07 СВ 3-5
{5}
н/о н/о +29.9 +18.3 50 +35 +35 очень
душно
1009.5 996.5
15 9.07 СВ 1-2
{5}
н/о н/о +33.6 +18.5 41 +38 +38 очень
душно
1009.5 996.7
16 9.07 З 4-5
{5}
н/о н/о +29.7 +20.3 57 +36 +36 очень
душно
1008.8 995.8
17 9.07 З 3-4
{5}
н/о н/о +29.2 +21.2 62 +37 +37 очень
душно
1008.5 995.5
18 9.07 З 3
{16}
15 км 5/0
[As op]
+26.8 +24.3 86 +37 +38 очень
душно
1008.1 995.0 +24.6 +34.2
19 9.07 З 5-13
{13}
н/о н/о +26.4 +23.9 86 +36 +36 очень
душно
1006.9 993.8
20 9.07 З 6-10
{12}
н/о н/о +25.7 +23.2 86 +34 +34 очень
душно
1007.9 994.8
21 9.07 З 3-9
{11}
н/о н/о +25.5 +23.9 91 +35 +35 очень
душно
1008.2 995.1
22 9.07 З 4-8
{10}
н/о н/о +25.0 +23.4 91 +34 +34 очень
душно
1008.3 995.2
23 9.07 З 4-10
{11}
н/о н/о +24.8 +22.7 88 +33 +33 очень
душно
1008.1 994.9
00 10.07 З 3-10
{11}
н/о н/о +24.4 +22.3 88 +32 +32 очень
душно
1008.7 995.5
01 10.07 З 4-9
{10}
н/о н/о +24.3 +22.6 90 +32 +32 очень
душно
1008.0 994.8
02 10.07 З 3-9
{9}
н/о н/о +24.1 +22.5 91 +32 +32 очень
душно
1007.4 994.2
03 10.07 З 3-8
{10}
н/о н/о +24.2 +22.8 92 +32 +32 очень
душно
1007.3 994.1
04 10.07 ЮЗ 4-8
{9}
н/о н/о +24.4 +23.2 93 +33 +33 очень
душно
1006.9 993.7
05 10.07 З 4-7
{8}
н/о н/о +24.7 +23.5 93 +33 +33 очень
душно
1007.4 994.3
06 10.07 З 2
{13}
н/о н/о +24.9 +23.7 93 +34 +34 очень
душно
1007.5 994.4 +24.1 +26.8
07 10.07 З 3-7
{7}
н/о н/о +25.1 +24.1 94 +35 +35 очень
душно
1007.4 994.3
08 10.07 З 6-8
{8}
н/о н/о +26.3 +21.3 74 +33 +33 очень
душно
1006.9 993.8
09 10.07 З 6-8
{8}
15 км 8/8 900 м
[Cu med, cong]
+26.3 +22.8 81 +35 +36 очень
душно
1007.8 994.7
10 10.07 З 5-9
{9}
н/о н/о +26.0 +23.3 85 +35 +35 очень
душно
1008.6 995.5
11 10.07 З 6-8
{10}
н/о н/о +26.7 +22.3 77 +35 +35 очень
душно
1008.7 995.6
12 10.07 З 7-10
{10}
15 км 8/8 900 м
[Cu Sc]
+26.4 +22.7 80 +35 +36 очень
душно
1008.9 995.8
13 10.07 З 7-9
{9}
н/о н/о +26.3 +22.4 79 +34 +34 очень
душно
1008.8 995.7
14 10.07 З 6-8
{9}
н/о н/о +26.5 +22.1 77 +34 +34 очень
душно
1009.2 996.1
15 10.07 З 3-8
{9}
н/о н/о +25.5 +21.4 78 +32 +32 очень
душно
1009.6 996.4
16 10.07 З 3-8
{9}
н/о н/о +25.2 +20.9 77 +32 +32 очень
душно
1009.8 996.6
17 10.07 З 3-7
{8}
н/о н/о +24.9 +20.2 75 +31 +31 очень
душно
1010.6 997.4
18 10.07 З 3-5
{7}
н/о н/о +24.2 +19.9 77 +30 +30 очень
душно
1011.1 997.9 +24.2 +26.9
19 10.07 З 2-6
{6}
н/о н/о +23.9 +19.4 76 +29 +29 душно 1011.3 998.0
20 10.07 З 2-5
{6}
н/о н/о +23.7 +19.4 77 +29 +29 душно 1012.1 998.8
21 10.07 З 2-5
{6}
н/о н/о +23.8 +19.1 75 +29 +29 душно 1012.4 999.1
22 10.07 З 2-6
{6}
н/о н/о +23.9 +19.4 76 +29 +29 душно 1012.7 999.4
23 10.07 З 2-4
{6}
н/о н/о +23.6 +19.9 80 +29 +29 душно 1012.7 999.4
00 11.07 З 2-5
{5}
н/о н/о +23.5 +19.6 79 +29 +29 душно 1012.7 999.4
01 11.07 З 2-4
{5}
н/о н/о +23.5 +19.8 80 +29 +29 душно 1012.5 999.2
02 11.07 З 2-4
{4}
н/о н/о +23.3 +20.1 82 +30 +30 очень
душно
1012.3 999.0
03 11.07 З 2-3
{4}
н/о н/о +23.1 +20.1 83 +30 +30 очень
душно
1012.5 999.2
04 11.07 З 2-3
{4}
н/о н/о +23.0 +19.8 82 +30 +30 очень
душно
1012.7 999.4
05 11.07 З 2-2
{3}
н/о н/о +23.2 +20.0 82 +30 +30 очень
душно
1012.8 999.5
06 11.07 З 1
{5}
16 км 4/0
[Ac trans]
+24.2 +20.3 79 +30 +32 очень
душно
1013.0 999.7 +22.9 +24.2
07 11.07 З 1-2
{2}
н/о н/о +25.1 +20.1 74 +31 +31 очень
душно
1013.1 999.9
08 11.07 ЮЗ 1-2
{2}
н/о н/о +24.8 +19.8 74 +30 +30 душно 1013.3 1000.1
09 11.07 ЮЗ 1-1
{2}
16 км 4/4 900 м
[Cu med, cong]
+26.1 +20.4 71 +32 +43 очень
душно
1013.3 1000.1
10 11.07 В 2-4
{4}
н/о н/о +30.0 +20.0 55 +36 +36 очень
душно
1013.2 1000.2
11 11.07 В 3-4
{4}
н/о н/о +30.1 +18.8 51 +35 +35 очень
душно
1013.0 1000.0
12 11.07 В 3-4
{4}
16 км 4/4 900 м
[Cu med, cong]
+29.8 +17.9 49 +34 +45 очень
душно
1012.9 999.9
13 11.07 В 2-4
{4}
н/о н/о +30.5 +16.5 43 +34 +34 очень
душно
1012.7 999.7
14 11.07 ЮВ 2-3
{4}
н/о н/о +29.6 +15.3 42 +32 +32 душно 1012.7 999.6
15 11.07 Ю 1-2
{3}
16 км 5/5 900 м
[Cu med, cong]
+30.0 +14.9 40 +32 +38 жарко 1012.1 999.1
16 11.07 ЮЗ 1-2
{3}
н/о н/о +28.0 +18.1 55 +33 +33 очень
душно
1012.3 999.2
17 11.07 З 1-3
{3}
н/о н/о +27.0 +21.1 70 +34 +34 очень
душно
1012.2 999.1
18 11.07 З 4
{9}
16 км 5/0
[Ci ing]
+25.4 +21.5 79 +32 +33 очень
душно
1012.2 999.0 +24.2 +31.1
19 11.07 З 2-6
{7}
н/о н/о +24.5 +21.2 82 +31 +31 очень
душно
1011.7 998.5
20 11.07 СЗ 3-6
{7}
н/о н/о +24.5 +21.0 81 +31 +31 очень
душно
1011.7 998.5
21 11.07 З 4-8
{8}
н/о н/о +24.5 +21.0 81 +31 +31 очень
душно
1011.8 998.6
22 11.07 З 4-8
{8}
н/о н/о +24.2 +19.9 77 +30 +30 очень
душно
1011.8 998.5
23 11.07 З 5-8
{8}
н/о н/о +24.2 +19.5 75 +29 +29 душно 1011.9 998.6
00 12.07 З 6-8
{8}
н/о н/о +24.0 +20.3 80 +30 +30 очень
душно
1011.6 998.3
01 12.07 З 5-7
{8}
н/о н/о +23.8 +21.1 85 +30 +30 очень
душно
1011.5 998.2
02 12.07 З 4-6
{7}
н/о н/о +23.4 +20.7 85 +31 +31 очень
душно
1011.8 998.5
03 12.07 З 4-6
{7}
14 км 3/3 480 м
[Cu hum]
+23.4 +20.9 86 +31 +31 очень
душно
1011.6 998.3
04 12.07 З 5-7
{7}
н/о н/о +23.4 +20.9 86 +31 +31 очень
душно
1011.6 998.3
05 12.07 З 4-5
{7}
н/о н/о +23.4 +20.7 85 +31 +31 очень
душно
1012.3 999.0
06 12.07 З 4
{10}
14 км 4/0
[Ac cuf]
+24.6 +21.1 81 +31 +33 очень
душно
1012.1 998.9 +23.3 +25.4
07 12.07 З 3-6
{6}
н/о н/о +25.0 +21.5 81 +32 +32 очень
душно
1012.1 998.9
08 12.07 З 4-5
{5}
н/о н/о +24.7 +21.2 81 +31 +31 очень
душно
1012.2 999.0
09 12.07 З 3-7
{7}
15 км 8/8 800 м
[Cu hum]
+25.0 +22.1 84 +32 +35 очень
душно
1011.8 998.6
10 12.07 З 3-7
{8}
н/о н/о +25.9 +22.6 82 +34 +34 очень
душно
1012.1 998.9
11 12.07 З 4-7
{7}
н/о н/о +26.2 +22.7 81 +35 +35 очень
душно
1011.9 998.8
12 12.07 З 4-9
{9}
15 км 8/8 800 м
[Cu hum]
+26.4 +21.2 73 +33 +36 очень
душно
1011.2 998.1
13 12.07 З 5-8
{9}
н/о н/о +26.6 +20.7 70 +33 +33 очень
душно
1011.1 998.0
14 12.07 З 4-8
{9}
н/о н/о +26.4 +20.9 72 +33 +33 очень
душно
1011.1 998.0
15 12.07 З 3-8
{9}
н/о н/о +26.1 +21.5 76 +33 +33 очень
душно
1011.3 998.1
16 12.07 З 4-7
{9}
н/о н/о +26.0 +21.0 74 +33 +33 очень
душно
1011.1 997.9
17 12.07 З 6-11
{11}
н/о н/о +25.7 +20.5 73 +32 +32 очень
душно
1010.9 997.7
18 12.07 З 5-18
{22}
18 км ясно +25.4 +21.3 78 +32 +32 очень
душно
1011.3 998.1 +24.3 +26.8
19 12.07 З 5-9
{9}
н/о н/о +24.9 +21.4 81 +32 +32 очень
душно
1011.8 998.6
20 12.07 З 5-7
{8}
н/о н/о +24.7 +21.6 83 +32 +32 очень
душно
1012.3 999.1
21 12.07 З 4-7
{8}
н/о н/о +24.5 +22.2 87 +32 +32 очень
душно
1012.5 999.3
22 12.07 З 3-6
{7}
н/о н/о +24.4 +21.9 86 +31 +31 очень
душно
1012.6 999.4
23 12.07 З 3-6
{7}
н/о н/о +24.4 +21.7 85 +31 +31 очень
душно
1012.1 998.9
00 13.07 З 3-7
{7}
н/о н/о +24.4 +20.9 81 +31 +31 очень
душно
1011.5 998.3
01 13.07 З 5-9
{10}
н/о н/о +24.5 +21.8 85 +31 +31 очень
душно
1010.4 997.2
02 13.07 З 5-9
{11}
н/о н/о +24.6 +21.1 81 +31 +31 очень
душно
1010.0 996.8
03 13.07 З 3-8
{9}
н/о н/о +24.2 +21.5 85 +31 +31 очень
душно
1009.7 996.5
04 13.07 З 4-8
{9}
н/о н/о +24.3 +21.0 82 +31 +31 очень
душно
1009.5 996.3
05 13.07 З 4-9
{9}
н/о н/о +24.5 +21.6 84 +31 +31 очень
душно
1009.2 996.0
06 13.07 З 3
{19}
25 км 6/6
[Cu hum]
+24.5 +22.0 86 +32 +33 очень
душно
1009.2 996.0 +24.2 +25.4
07 13.07 З 4-9
{11}
н/о н/о +24.4 +22.5 89 +32 +32 очень
душно
1009.3 996.1
08 13.07 З 4-9
{10}
н/о н/о +25.5 +22.4 83 +33 +33 очень
душно
1008.8 995.7
09 13.07 З 3-8
{9}
18 км 1/1 800 м
[Cu hum]
+25.9 +22.4 81 +34 +46 очень
душно
1008.8 995.7
10 13.07 З 3-7
{9}
н/о н/о +26.2 +21.8 77 +34 +34 очень
душно
1009.5 996.4
11 13.07 З 7-9
{9}
н/о н/о +26.7 +20.1 67 +33 +33 очень
душно
1008.9 995.8
12 13.07 З 10-21
{22}
н/о н/о +25.6 +20.2 72 +32 +32 очень
душно
1007.7 994.6
14 13.07 З 7-10
{12}
н/о н/о +26.3 +20.2 69 +32 +32 очень
душно
1007.9 994.8
15 13.07 З 6-9
{9}
15 км 8/8 600 м
[Cu hum]
+25.7 +19.8 70 +31 +32 очень
душно
1008.0 994.9
17 13.07 З 4-8
{8}
н/о н/о +25.0 +20.5 76 +31 +31 очень
душно
1008.5 995.3
18 13.07 З 3
{14}
15 км 4/4 600 м
[Cu med, cong]
+24.7 +20.6 78 +31 +31 очень
душно
1008.8 995.6 +24.4 +26.8
19 13.07 З 3-8
{8}
н/о н/о +24.0 +20.5 81 +30 +30 очень
душно
1008.5 995.3
20 13.07 З 3-8
{8}
н/о н/о +24.1 +21.0 83 +30 +30 очень
душно
1009.6 996.4
21 13.07 З 3-6
{7}
н/о н/о +23.9 +20.8 83 +30 +30 очень
душно
1010.1 996.9
22 13.07 З 3-6
{6}
н/о н/о +23.8 +20.7 83 +30 +30 очень
душно
1010.3 997.1
23 13.07 З 2-5
{5}
н/о н/о +23.8 +20.3 81 +29 +29 душно 1010.8 997.5
00 14.07 З 3-3
{10}
н/о н/о +23.6 +20.5 83 +29 +29 душно 1010.6 997.3
01 14.07 З 1-4
{4}
н/о н/о +23.4 +20.1 82 +31 +31 очень
душно
1010.2 996.9
02 14.07 З 2-3
{3}
н/о н/о +23.1 +20.1 83 +30 +30 очень
душно
1009.8 996.5
03 14.07 З 1-3
{3}
н/о н/о +23.1 +19.9 82 +30 +30 очень
душно
1009.5 996.2
04 14.07 З 1-1
{3}
н/о н/о +22.7 +19.5 82 +29 +29 очень
душно
1009.2 995.9
05 14.07 З 1-1
{1}
н/о н/о +22.8 +20.1 85 +29 +29 очень
душно
1009.5 996.2
06 14.07 З 1
{3}
н/о н/о +24.7 +20.6 78 +31 +31 очень
душно
1010.0 996.8 +22.2 +24.7
07 14.07 ЮЗ 1-1
{2}
н/о н/о +25.2 +20.2 74 +31 +31 очень
душно
1010.2 997.0
08 14.07 ЮЗ 1-2
{2}
н/о н/о +26.5 +19.9 67 +32 +32 очень
душно
1010.1 997.0
09 14.07 В 3
{8}
15 км 3/1 600 м
[Cu hum Cc]
+28.5 +21.3 65 +36 +47 очень
душно
1010.1 997.1
10 14.07 В 3-5
{5}
н/о н/о +29.2 +18.6 53 +34 +34 очень
душно
1009.4 996.4
11 14.07 СВ 4-6
{6}
н/о н/о +29.7 +19.1 53 +35 +35 очень
душно
1009.0 996.0
12 14.07 В 4
{13}
14 км 6/1 1000 м
[Cu med, cong Ac cuf]
+28.6 +19.0 56 +34 +41 очень
душно
1008.9 995.9
13 14.07 В 4-6
{6}
н/о н/о +29.2 +17.7 50 +34 +34 очень
душно
1008.5 995.5
14 14.07 В 3-5
{6}
н/о н/о +28.7 +19.1 56 +34 +34 очень
душно
1008.6 995.6
15 14.07 В 3-5
{6}
н/о н/о +28.5 +16.1 47 +32 +32 душно 1008.0 995.0
16 14.07 В 3-4
{5}
н/о н/о +27.4 +15.4 48 +30 +30 жарко 1007.7 994.6
17 14.07 В 3-4
{5}
н/о н/о +26.8 +16.7 54 +30 +30 душно 1007.4 994.3
18 14.07 В 3
{8}
17 км 6/4 800 м
[Sc Ac As]
+24.8 +20.3 76 +31 +31 очень
душно
1007.4 994.2 +24.7 +30.1
19 14.07 СВ 3-4
{4}
н/о н/о +23.7 +21.2 86 +30 +30 очень
душно
1007.3 994.1
20 14.07 СВ 3-3
{4}
н/о н/о +23.4 +21.5 89 +32 +32 очень
душно
1007.4 994.2
21 14.07 СВ 2-3
{3}
н/о н/о +23.4 +21.8 91 +32 +32 очень
душно
1007.7 994.5
22 14.07 СВ 1-2
{3}
н/о н/о +23.3 +21.7 91 +32 +32 очень
душно
1007.4 994.2
23 14.07 СВ 1-2
{2}
н/о н/о +22.8 +21.3 91 +30 +30 очень
душно
1006.9 993.7
00 15.07 ЮЗ 2-2
{2}
15 км 6/4 800 м
[Sc Ac As]
+23.4 +21.5 89 +32 +32 очень
душно
1006.4 993.2
01 15.07 СЗ 2-4
{5}
н/о н/о +24.0 +20.7 82 +30 +30 очень
душно
1005.6 992.4
02 15.07 СЗ 2-4
{5}
н/о н/о +23.9 +20.0 79 +29 +29 душно 1005.1 991.9
03 15.07 СЗ 2-5
{6}
н/о н/о +23.5 +19.8 80 +29 +29 душно 1004.9 991.7
04 15.07 З 2-6
{6}
н/о н/о +23.2 +19.8 81 +30 +30 очень
душно
1004.8 991.6
05 15.07 СЗ 2-6
{6}
н/о н/о +23.3 +18.8 76 +30 +30 очень
душно
1004.5 991.3
06 15.07 СЗ 2
{12}
15 км 6/4 800 м
[Sc Ac As]
+23.9 +20.0 79 +29 +31 душно 1004.6 991.4 +22.5 +24.8
07 15.07 СЗ 2-5
{6}
н/о н/о +24.5 +20.0 76 +30 +30 очень
душно
1004.4 991.3
08 15.07 З 3-8
{8}
н/о н/о +24.6 +20.5 78 +31 +31 очень
душно
1004.0 990.9
09 15.07 СЗ 2-7
{8}
15 км 8/5 800 м
[Cu med, cong Ac As]
+25.2 +21.1 78 +32 +36 очень
душно
1004.2 991.1
10 15.07 З 3-9
{9}
н/о н/о +24.5 +18.4 69 +29 +29 душно 1003.9 990.8
11 15.07 СЗ 3-8
{8}
н/о н/о +24.0 +18.2 70 +28 +28 душно 1004.3 991.1
12 15.07 СЗ 4-11
{11}
н/о н/о +23.5 +20.0 81 +29 +29 душно 1003.6 990.4
13 15.07 З 4-10
{11}
н/о н/о +23.4 +19.8 80 +30 +30 очень
душно
1003.3 990.1
14 15.07 З 4-11
{11}
н/о н/о +23.0 +18.7 77 +29 +29 очень
душно
1003.6 990.4
15 15.07 З 4-9
{10}
12 км 9/9 800 м
[Sc diur, vesp]
+22.6 +18.6 78 +28 +29 душно 1004.0 990.8
16 15.07 З 3-9
{10}
н/о н/о +23.0 +19.2 79 +29 +29 очень
душно
1003.4 990.2
17 15.07 З 3-8
{9}
н/о н/о +23.1 +19.5 80 +30 +30 очень
душно
1003.8 990.6
18 15.07 З 5-9
{9}
н/о н/о +22.2 +18.6 80 +27 +27 душно 1003.7 990.5 +22.2 +25.6
19 15.07 СЗ 3-8
{11}
н/о н/о +22.2 +19.2 83 +28 +28 душно 1003.7 990.5
20 15.07 З 5-7
{10}
н/о н/о +21.4 +17.4 78 +25 +25 комфорт 1004.9 991.6
21 15.07 СВ 3-6
{7}
н/о {дождь} н/о +18.7 +16.7 88 +20 +20 1005.9 992.5 0.6
22 15.07 В 2-2
{5}
н/о н/о +18.4 +17.2 93 +20 +20 1006.6 993.1 1
23 15.07 С 2-3
{3}
н/о н/о +18.6 +16.9 90 +20 +20 1006.7 993.2 0.0
00 16.07 С 2-4
{5}
н/о н/о +18.7 +17.0 90 +20 +20 1007.0 993.5 2
01 16.07 СВ 4-7
{9}
н/о н/о +19.2 +18.0 93 +21 +21 комфорт 1007.6 994.2 0.0
02 16.07 СВ 4-8
{10}
н/о н/о +19.6 +17.6 88 +22 +22 комфорт 1007.7 994.3 0.0
03 16.07 С 3-5
{8}
12 км 1/1 800 м
[Cu med, cong]
+19.2 +16.6 85 +21 +21 комфорт 1008.7 995.2 0.0
04 16.07 С 3-5
{5}
н/о н/о +18.9 +15.6 81 +20 +20 1009.7 996.2
05 16.07 СВ 3-5
{5}
н/о н/о +20.4 +15.6 74 +24 +24 комфорт 1010.2 996.8
06 16.07 СВ 4
{13}
14 км ясно +22.3 +14.9 63 +26 +28 жарко 1010.9 997.5 +18.3 +22.6
07 16.07 СВ 4-7
{7}
н/о н/о +24.5 +14.3 53 +27 +27 жарко 1011.6 998.3
08 16.07 СВ 4-7
{8}
н/о н/о +25.9 +13.7 47 +28 +28 жарко 1012.0 998.8
09 16.07 СВ 4-7
{7}
23 км 1/1 600 м
[Cu hum]
+27.4 +14.1 44 +30 +38 жарко 1012.4 999.2
10 16.07 СВ 4-7
{7}
н/о н/о +27.6 +15.6 48 +31 +31 душно 1012.3 999.2
11 16.07 З 2-4
{6}
н/о н/о +24.1 +17.3 66 +28 +28 душно 1013.2 999.9
12 16.07 З 1-3
{4}
25 км 4/4 600 м
[Cu hum]
+25.9 +17.0 58 +30 +43 душно 1013.1 999.9

 

Местоположение метеостанции Мыс Пертюзато (Франция): широта 41.37 долгота 9.17 высота над уровнем моря 116 м.

В архиве по умолчанию представлена погода на Мысе Пертюзато за последнюю неделю. Архивные данные за месяц целиком и за предыдущие месяцы, начиная с января 2011 года, Вы можете получить, выбрав интересующий диапазон дат из раскрывающегося списка и нажав кнопку "Ввод!".


*Определитесь, кто Вы:
робот инопланетянин человек

Внимание! Время в таблицах - всемирное. Для получения местного времени необходимо прибавить поправку, которая равна 1 ч.

Смотрите также архив погоды в соседних городах и на ближайших метеорологических станциях:

Погода в Фигари (Франция) (16 км)
Погода в Ольвии (Италия) (60 км)
Погода в Соленцаре (Франция) (64 км)
Погода в Аяччо (Франция) (68 км)
Погода в Ла Парате (Франция) (76 км)
Погода в Алистро (Франция) (104 км)
Погода в Альгеро (Италия) (111 км)
Погода на Капо Кацция (Италия) (122 км)
Погода в Кальви (Франция) (133 км)
Погода в Бастии (Франция) (134 км)

Пояснения к столбцам:

Ветер - указаны скорость ветра в м/с - средняя за 10 мин, порывы в срок и между сроками (в фигурных скобках) и направление, откуда дует ветер: С - северный, СВ - северо-восточный, В - восточный, ЮВ - юго-восточный, Ю - южный, ЮЗ - юго-западный, З - западный, СЗ - северо-западный.
Видимость - горизонтальная дальность видимости в метрах или километрах. При видимости от 1 до 10 км при отсутствии осадков обычно наблюдается дымка, при ухудшении видимости до 1 км и менее - туман. В сухую погоду видимость может ухудшаться дымом, пылью или мглою.
Явления - указаны атмосферные явления, наблюдавшиеся в срок или в последний час перед сроком; фигурными скобками обозначены явления, наблюдавшиеся между сроками (за 1-3 часа до срока); квадратными скобками обозначены град или гололедные отложения с указанием их диаметра в мм.
Облачность - указаны через наклонную черту общая и нижняя облачность в баллах и высота нижней границы облаков в метрах; квадратными скобками обозначены формы облаков: Ci - перистые, Cs - перисто-слоистые, Cc - перисто-кучевые, Ac - высококучевые, As - высокослоистые, Sc - слоисто-кучевые, Ns - слоисто-дождевые, Cu - кучевые, Cb - кучево-дождевые. Подробнее классификацию облаков см. в Атласе облаков (PDF).
T - Температура воздуха - температура, измеренная на высоте 2 м над землей.
Td - Температура точки росы - температура, при понижении до которой содержащийся в воздухе водяной пар достигнет насыщения.
f - Относительная влажность воздуха - влажноcть воздуха, измеренная на высоте 2 м над землей.
Te - Эффективная температура - температура, которую ощущает одетый по сезону человек в тени. Характеристика душности погоды. При расчете учитывается влияние влажности воздуха и скорости ветра на теплоощущения человека.
Tes - Эффективная температура на солнце - температура, которую ощущает человек, с поправкой на солнечный нагрев. Характеристика знойности погоды. Зависит от высоты солнца над горизонтом, облачности и скорости ветра. Ночью, в пасмурную погоду, а также при ветре 12 м/с и более поправка равна нулю.
P - Атмосферное давление - приведенное к уровню моря атмосферное давление.
Po - Атмосферное давление - измеренное на уровне метеостанции атмосферное давление.
Tmin - Минимальная температура - минимум температуры воздуха на высоте 2 м над землей.
Tmax - Максимальная температура - максимум температуры воздуха на высоте 2 м над землей.
R - Количество осадков - Количество выпавших осадков за период времени, мм. При наведении курсора мыши на число - период времени, за который выпало указанное количество осадков.
R24 - Количество осадков - Количество выпавших осадков за 24 часа, мм.
S - Снежный покров - Высота снежного покрова, см. При наведении курсора мыши на число - состояние снежного покрова и степень покрытия местности в баллах.